Vorticity
14 16 15 10 2 -1 -2 -1 3 9 14 14 10 7 5 4 4 4 4 4 5 5 7 8 9 10 11 11 11 10 10 8 7 6 5 6 6 5 5 5 6 7 8 9 9 10 10 10 10 10 9 9 8 8 8 8 8 8 8 8 7 6 4 2 0 -0 0 2 3
16 11 9 8 2 -1 -1 3 10 15 16 12 8 5 3 3 3 3 4 4 5 6 8 9 10 10 11 10 10 9 8 6 5 4 5 6 6 5 5 6 7 8 9 10 10 10 9 9 9 8 8 8 8 8 9 9 9 9 9 9 8 7 6 4 2 1 1 2 3
18 10 7 7 4 4 7 13 16 16 13 8 4 3 2 2 3 3 4 4 6 7 8 9 9 10 10 9 8 7 6 4 4 5 6 7 6 6 6 8 9 9 9 9 9 8 8 7 7 7 7 8 8 9 9 9 9 9 9 9 9 8 7 6 4 3 2 2 3
5 5 6 9 11 15 18 20 17 13 8 4 2 2 2 3 3 3 4 5 6 7 8 8 8 8 8 8 7 5 3 3 5 7 8 7 6 6 7 9 9 9 8 8 7 6 6 5 6 6 7 8 8 9 9 9 10 10 10 10 9 9 8 7 6 5 4 4 4
5 9 12 16 19 21 20 18 13 9 6 3 2 2 2 3 3 4 5 6 6 7 7 7 7 7 7 6 4 3 3 6 8 9 8 7 6 7 8 8 8 7 6 6 5 5 5 5 6 7 8 8 9 9 9 10 10 10 10 10 10 9 8 7 7 6 5 5 5
11 14 17 20 16 15 15 17 11 7 4 3 3 3 3 3 4 4 5 5 6 6 6 6 6 6 5 4 2 4 7 10 10 8 7 6 6 7 7 7 6 6 5 5 5 5 6 7 8 8 8 9 9 9 9 10 10 10 10 10 9 8 8 7 7 6 6 6 7
9 13 15 13 11 12 15 18 10 5 3 3 3 3 4 4 4 4 5 5 5 5 5 5 5 5 3 2 4 7 9 10 8 6 6 6 6 6 6 5 5 5 5 5 6 6 7 8 8 9 9 9 9 9 10 10 10 10 10 9 9 8 8 7 7 7 7 7 8
12 14 12 6 11 16 19 17 9 5 3 3 3 4 4 4 5 5 5 5 5 5 5 5 4 3 3 4 7 8 8 7 5 5 5 5 5 5 5 5 5 5 6 6 7 7 8 9 9 9 8 8 9 9 10 10 10 10 10 9 9 8 8 7 8 8 8 9 10
15 11 8 9 17 20 18 9 6 4 3 4 4 4 4 4 5 5 5 5 5 5 5 5 4 4 5 7 8 7 6 4 4 4 5 5 4 5 5 5 5 6 6 7 7 8 8 8 8 8 8 8 9 10 10 10 10 10 10 9 9 8 8 8 8 9 10 10 11
15 11 11 17 19 16 11 6 4 3 3 5 5 5 5 5 5 5 5 5 6 6 5 4 4 5 6 7 6 5 4 4 4 4 4 4 4 5 5 6 6 7 7 7 8 8 8 8 8 8 8 9 10 10 10 11 10 10 9 9 9 9 9 9 10 10 11 12 11
13 12 13 15 16 13 8 4 3 3 5 8 8 7 7 6 6 6 6 7 7 6 6 5 5 5 5 5 4 4 4 4 4 4 4 4 5 5 6 7 8 8 8 8 8 8 8 8 8 8 9 9 10 10 10 10 10 10 9 9 9 9 10 10 11 11 11 10 8
9 9 10 12 11 8 5 5 5 7 10 12 11 9 7 6 6 6 7 9 8 7 5 4 4 4 4 4 4 4 4 4 4 4 4 5 6 6 7 8 8 8 8 8 8 8 8 8 8 9 9 10 10 10 10 10 9 9 9 9 10 10 10 11 11 10 9 6 5
5 6 8 10 9 9 9 12 11 11 11 12 9 7 6 6 7 8 9 9 6 5 4 3 4 4 5 5 5 5 5 5 5 5 5 6 6 7 8 8 8 8 8 8 8 9 9 9 9 9 10 10 10 10 9 9 9 9 10 10 10 10 11 10 9 7 6 5 5
5 7 9 11 13 14 16 18 11 7 6 5 5 5 6 8 9 9 8 5 3 2 2 3 5 6 6 6 6 5 5 4 5 5 5 6 7 7 8 8 8 8 8 8 9 9 9 9 9 10 10 10 10 9 9 9 9 10 10 10 10 10 9 8 7 6 5 5 6
8 11 13 14 16 17 17 14 6 1 0 2 4 6 8 8 8 6 3 1 1 1 3 5 7 7 7 6 5 4 4 4 4 5 6 7 7 7 7 7 7 8 8 8 9 9 10 10 10 10 10 10 10 9 9 9 9 10 10 9 9 8 7 7 6 6 6 6 6
11 12 14 15 18 18 15 9 -0 -2 -0 4 6 6 6 5 3 1 0 0 2 4 6 7 8 7 6 5 4 3 3 4 5 6 7 8 8 7 7 7 7 7 8 8 9 10 10 10 10 10 9 9 9 9 9 9 9 9 8 8 7 7 7 7 7 7 7 7 7
11 12 15 18 21 20 13 0 -4 -2 3 6 5 4 3 1 0 0 2 4 6 8 9 9 7 6 5 4 3 3 4 6 7 8 9 9 8 7 7 7 7 8 8 9 9 10 10 10 10 9 9 8 8 8 8 8 7 7 7 7 7 7 7 7 7 7 7 7 9
12 14 17 24 26 18 5 -7 -4 1 5 5 3 2 1 1 2 4 6 9 10 10 9 7 5 4 3 3 4 6 8 9 10 11 10 9 8 7 7 7 7 8 9 9 9 9 9 9 9 8 8 8 7 7 7 7 6 6 6 7 7 7 7 7 7 7 8 9 10
13 17 21 26 21 9 -3 -8 -1 3 4 2 1 1 2 4 7 9 11 11 10 8 6 5 4 4 5 6 8 10 12 12 12 11 10 8 8 7 7 7 8 8 9 9 9 9 9 9 8 8 7 7 7 7 6 6 6 7 7 7 8 7 7 7 7 8 9 10 10
17 19 20 17 7 -1 -6 -4 -0 1 1 1 2 4 7 10 11 12 11 9 7 6 5 4 5 6 8 10 11 13 13 12 11 9 8 7 7 7 7 8 8 9 9 9 9 9 9 8 7 7 7 6 6 6 6 7 7 7 7 7 7 7 7 7 8 9 9 10 10
18 15 10 3 -3 -6 -5 -2 -1 -0 1 3 6 9 11 12 11 10 8 6 5 5 5 6 7 9 11 12 12 12 11 10 8 8 7 7 7 7 8 8 9 9 9 9 9 9 8 8 7 7 6 6 7 7 7 7 7 7 7 7 7 8 8 8 9 9 9 9 9
12 6 1 -4 -5 -4 -3 -1 0 2 5 8 10 11 11 10 8 7 5 4 4 5 6 8 9 10 11 11 10 9 8 7 7 7 7 7 7 7 8 8 9 9 9 9 9 8 8 7 7 7 7 7 7 7 7 7 7 7 8 8 8 8 8 9 9 8 8 8 7
7 3 -0 -2 -1 -0 1 3 5 7 9 11 11 10 8 6 5 4 4 4 5 6 7 9 9 9 9 8 7 7 6 6 6 7 7 8 8 8 8 8 9 9 9 9 8 8 8 8 7 7 7 7 7 7 7 8 8 8 8 9 9 9 8 8 8 8 7 6 6
4 2 2 2 4 6 7 8 9 10 11 10 8 6 5 3 3 3 4 5 6 7 8 8 8 8 7 7 6 6 6 6 7 7 8 8 8 8 8 9 9 9 9 9 8 8 8 8 8 7 7 7 7 8 8 8 8 9 9 9 8 8 7 7 7 7 6 6 6
2 3 5 7 9 10 10 11 11 10 9 7 5 3 2 2 3 4 5 6 7 7 8 8 7 7 7 7 6 7 7 7 8 8 8 8 9 9 9 9 9 9 9 8 8 8 8 8 8 7 7 7 8 8 8 8 9 9 8 8 7 6 6 6 7 7 7 7 7
5 8 10 11 11 11 11 10 9 7 5 3 3 2 3 3 4 5 6 7 7 7 8 8 8 7 7 7 7 8 8 8 9 9 9 9 9 9 9 8 8 8 8 9 8 8 8 8 8 7 7 8 8 8 8 9 8 8 7 6 6 6 6 7 7 7 8 8 9
13 14 13 13 12 10 9 7 5 4 3 2 3 3 4 5 6 7 7 8 8 8 8 8 8 8 8 8 8 9 9 9 9 9 9 9 8 8 8 8 8 8 8 8 8 8 8 7 7 7 8 8 8 8 8 8 8 7 6 6 6 6 7 8 8 8 8 8 10
17 15 13 11 9 7 5 4 3 3 3 4 4 5 6 7 8 8 8 9 9 9 9 9 9 9 9 9 10 10 10 10 9 9 8 8 8 8 8 8 8 8 8 8 8 7 7 7 7 7 8 8 8 8 8 7 6 6 5 6 6 7 8 8 8 7 8 10 12
13 10 8 6 5 4 4 3 4 4 5 6 7 8 8 9 9 9 10 10 10 10 10 10 10 10 10 11 11 10 10 10 9 8 8 7 7 7 7 8 8 8 8 8 7 7 6 7 7 7 8 8 8 7 6 6 5 5 6 7 7 8 8 7 7 8 10 13 13
6 4 3 3 3 4 4 5 5 6 7 8 9 9 10 10 10 10 11 11 11 11 10 9 10 11 11 11 11 11 10 10 9 8 7 7 7 7 7 8 8 8 7 7 7 6 6 7 7 7 7 7 6 6 5 4 5 6 7 8 8 8 7 6 7 10 12 14 11
2 2 2 3 4 5 5 6 7 8 9 9 9 9 10 10 10 11 11 11 11 10 10 11 12 12 12 12 11 10 10 9 8 7 7 7 7 7 8 8 8 8 7 7 7 7 7 7 7 7 7 6 5 5 4 5 6 7 8 8 8 7 6 7 10 12 13 11 7
2 3 4 4 5 6 6 7 8 8 8 9 9 9 9 10 10 10 10 11 11 11 12 13 13 13 12 12 11 10 9 8 8 7 7 7 7 8 8 8 8 7 7 7 7 7 7 8 7 7 6 5 5 5 6 7 8 8 8 8 7 7 8 11 13 13 10 6 4
4 5 5 6 6 7 7 8 8 8 8 8 8 8 9 9 10 10 11 12 12 13 13 13 13 12 12 11 10 9 9 8 8 8 8 8 8 8 8 8 8 8 7 7 7 7 8 8 7 6 5 5 5 6 7 8 9 9 9 9 9 11 13 15 13 10 6 3 2
5 6 7 7 7 7 7 7 7 7 7 7 8 8 9 9 10 10 11 12 13 13 13 12 12 11 10 10 9 9 8 8 8 8 8 8 8 8 8 8 8 8 8 7 8 8 7 7 6 6 5 5 6 8 9 9 10 10 11 12 14 15 15 13 9 5 3 2 2
6 6 7 7 7 7 6 6 6 6 7 7 8 8 9 9 10 11 11 12 12 12 12 11 11 10 10 10 9 9 8 8 8 8 8 8 8 8 8 8 8 8 8 8 8 7 7 6 6 6 6 6 8 9 9 10 11 13 15 17 17 15 11 7 4 2 1 1 2
6 6 7 6 6 6 6 5 6 6 7 7 8 8 9 9 10 11 11 11 11 11 10 10 9 9 9 9 9 9 9 9 9 8 8 8 8 8 8 8 8 8 8 8 7 7 6 6 6 6 7 7 8 9 10 11 14 16 17 16 13 9 6 3 2 1 1 1 2
6 6 6 5 5 5 5 5 6 6 7 8 8 8 8 9 9 10 10 10 10 9 9 8 8 8 9 9 9 9 9 9 8 8 8 8 8 8 8 8 8 8 8 7 7 6 6 6 6 7 7 8 9 9 10 12 14 15 13 10 7 4 2 1 1 1 1 2 2
5 5 5 4 5 5 6 6 7 7 8 9 8 8 8 8 9 9 10 10 9 8 8 8 8 9 9 9 9 9 9 8 8 8 8 8 8 8 8 8 8 7 7 7 6 6 6 6 7 7 8 8 8 8 9 11 12 11 8 5 3 1 0 0 1 1 2 2 2
4 4 4 5 5 6 7 8 8 9 9 9 8 8 8 9 9 10 10 10 9 8 8 8 9 9 9 9 9 9 8 8 8 8 8 8 8 8 8 7 7 7 7 7 6 6 6 7 7 8 8 7 6 6 8 11 11 9 5 1 -0 -1 -0 0 1 2 2 3 3
4 4 5 6 7 8 9 10 10 10 10 9 8 8 8 9 9 10 10 10 9 9 8 8 9 9 9 9 8 8 8 8 8 8 8 8 8 8 8 7 7 7 7 7 7 7 7 7 8 8 7 6 5 6 9 12 10 6 2 -2 -2 -1 -0 1 2 3 3 4 3
4 5 6 8 10 11 12 12 12 11 11 10 9 8 8 9 10 10 10 10 9 8 8 8 8 8 9 8 8 8 8 7 8 8 8 8 8 8 8 7 7 7 7 7 7 7 7 7 8 7 6 4 4 6 9 11 7 2 -1 -3 -1 0 2 4 4 5 5 4 4
Height
5668 5672 5673 5674 5677 5680 5683 5687 5691 5695 5700 5704 5708 5712 5716 5719 5722 5725 5728 5731 5733 5736 5738 5740 5742 5744 5746 5747 5749 5751 5752 5754 5755 5757 5757 5758 5759 5761 5762 5762 5763 5764 5765 5766 5767 5768 5768 5769 5770 5771 5771 5772 5772 5772 5773 5773 5773 5773 5773 5774 5774 5775 5775 5775 5776 5775 5775 5774 5774
5668 5670 5671 5672 5676 5679 5683 5687 5692 5696 5700 5704 5708 5712 5715 5718 5721 5724 5727 5730 5732 5735 5737 5739 5741 5743 5744 5746 5748 5750 5751 5752 5754 5755 5756 5757 5758 5759 5760 5761 5762 5763 5764 5765 5765 5766 5767 5768 5768 5769 5770 5770 5771 5771 5771 5771 5771 5772 5772 5772 5773 5773 5774 5774 5774 5773 5773 5773 5772
5666 5667 5668 5671 5675 5680 5684 5688 5692 5696 5700 5704 5708 5711 5714 5717 5720 5723 5726 5729 5732 5734 5736 5738 5740 5742 5743 5745 5747 5748 5750 5751 5752 5753 5755 5756 5757 5758 5759 5760 5761 5762 5762 5763 5764 5765 5766 5766 5767 5768 5768 5769 5769 5769 5769 5769 5769 5770 5771 5771 5772 5772 5772 5772 5772 5772 5772 5771 5771
5662 5664 5667 5672 5677 5681 5685 5689 5693 5697 5701 5704 5707 5710 5713 5716 5719 5722 5725 5728 5730 5732 5734 5737 5738 5741 5742 5744 5746 5747 5748 5750 5751 5752 5753 5755 5756 5757 5758 5759 5760 5761 5761 5762 5762 5763 5764 5765 5766 5766 5767 5767 5767 5767 5767 5767 5768 5769 5769 5770 5770 5770 5771 5771 5770 5770 5770 5770 5769
5662 5665 5670 5674 5678 5682 5686 5690 5693 5697 5701 5704 5707 5709 5712 5715 5718 5721 5724 5727 5729 5731 5733 5735 5737 5739 5741 5743 5744 5746 5747 5748 5750 5751 5752 5754 5755 5756 5757 5757 5758 5759 5760 5761 5761 5762 5763 5764 5764 5765 5765 5765 5765 5765 5766 5766 5767 5767 5768 5768 5769 5769 5769 5769 5768 5768 5768 5768 5768
5663 5667 5671 5675 5679 5683 5686 5689 5693 5697 5700 5702 5706 5708 5712 5714 5717 5720 5723 5725 5727 5730 5732 5734 5736 5738 5740 5742 5743 5745 5746 5747 5748 5750 5751 5752 5753 5754 5755 5756 5757 5758 5758 5759 5760 5761 5762 5762 5763 5763 5763 5763 5763 5764 5764 5765 5766 5766 5767 5767 5767 5767 5767 5767 5767 5767 5767 5767 5767
5664 5668 5671 5675 5679 5683 5687 5689 5692 5695 5698 5701 5704 5708 5711 5714 5717 5719 5722 5724 5726 5728 5731 5733 5735 5737 5739 5740 5742 5743 5745 5746 5747 5749 5750 5751 5752 5753 5754 5755 5756 5757 5757 5758 5759 5760 5760 5761 5761 5761 5762 5762 5762 5762 5763 5764 5764 5765 5765 5765 5765 5765 5765 5765 5765 5766 5766 5766 5765
5665 5668 5672 5676 5679 5682 5686 5689 5692 5695 5697 5700 5703 5707 5710 5713 5716 5718 5721 5723 5725 5727 5730 5732 5734 5736 5738 5739 5741 5742 5744 5745 5746 5747 5748 5750 5751 5752 5752 5753 5754 5755 5756 5757 5758 5758 5759 5759 5759 5760 5760 5760 5761 5762 5762 5762 5763 5763 5763 5763 5763 5764 5764 5764 5764 5764 5764 5764 5764
5666 5669 5672 5676 5678 5682 5685 5688 5691 5694 5697 5700 5703 5706 5709 5712 5715 5717 5720 5722 5724 5726 5729 5731 5733 5735 5737 5738 5740 5741 5742 5744 5745 5746 5747 5748 5749 5750 5751 5752 5753 5754 5755 5756 5757 5757 5757 5757 5758 5758 5759 5759 5760 5761 5761 5761 5762 5762 5762 5762 5762 5762 5762 5762 5763 5763 5763 5763 5762
5666 5670 5673 5676 5678 5681 5684 5687 5691 5694 5697 5700 5703 5706 5708 5711 5714 5716 5718 5721 5723 5725 5727 5730 5732 5733 5735 5737 5738 5740 5741 5742 5743 5744 5746 5747 5748 5749 5750 5751 5752 5753 5754 5755 5755 5756 5756 5756 5757 5757 5758 5758 5759 5759 5760 5760 5760 5760 5760 5760 5761 5761 5761 5761 5762 5762 5762 5761 5761
5668 5671 5674 5677 5679 5682 5685 5688 5691 5695 5698 5700 5703 5705 5708 5711 5713 5715 5717 5720 5722 5724 5727 5728 5731 5732 5734 5736 5737 5739 5740 5741 5742 5743 5744 5746 5747 5748 5749 5750 5751 5752 5753 5753 5754 5754 5755 5755 5756 5756 5757 5757 5758 5758 5758 5758 5759 5759 5759 5759 5759 5760 5760 5760 5760 5760 5760 5760 5760
5669 5672 5675 5677 5680 5682 5686 5689 5693 5696 5698 5699 5702 5704 5707 5710 5712 5715 5717 5719 5722 5724 5726 5727 5729 5732 5733 5735 5736 5737 5739 5740 5741 5742 5743 5745 5746 5747 5748 5749 5750 5751 5752 5752 5753 5753 5753 5754 5755 5755 5756 5757 5757 5757 5757 5757 5757 5757 5758 5758 5758 5759 5759 5759 5759 5759 5759 5759 5758
5671 5673 5676 5678 5681 5683 5687 5691 5695 5697 5697 5699 5701 5704 5707 5709 5712 5714 5717 5719 5721 5723 5725 5727 5729 5731 5732 5734 5735 5737 5738 5739 5740 5742 5743 5744 5745 5746 5747 5748 5749 5750 5750 5751 5751 5752 5752 5753 5754 5754 5755 5755 5756 5756 5756 5756 5756 5757 5757 5757 5757 5758 5758 5758 5758 5757 5757 5757 5757
5673 5675 5676 5678 5681 5683 5687 5690 5692 5694 5696 5699 5702 5704 5707 5709 5712 5714 5716 5718 5720 5722 5724 5727 5728 5730 5732 5733 5735 5736 5737 5738 5740 5741 5742 5743 5744 5745 5746 5747 5748 5748 5749 5750 5750 5751 5752 5752 5752 5753 5754 5754 5754 5754 5755 5755 5755 5756 5756 5756 5757 5757 5757 5757 5757 5756 5756 5756 5756
5672 5673 5674 5677 5680 5683 5686 5688 5690 5693 5696 5699 5702 5705 5707 5709 5712 5713 5716 5718 5720 5722 5724 5726 5728 5729 5731 5732 5734 5735 5737 5737 5739 5740 5741 5742 5743 5744 5745 5746 5747 5747 5748 5748 5749 5750 5750 5751 5751 5752 5752 5752 5753 5753 5753 5754 5754 5754 5755 5755 5755 5756 5756 5755 5755 5755 5755 5755 5755
5669 5671 5674 5677 5680 5682 5685 5687 5690 5693 5697 5700 5702 5705 5707 5709 5711 5713 5716 5718 5720 5722 5724 5726 5727 5729 5730 5732 5733 5734 5736 5737 5738 5739 5740 5741 5742 5743 5744 5745 5745 5746 5747 5747 5748 5748 5749 5749 5750 5750 5751 5751 5751 5752 5752 5752 5753 5753 5754 5754 5754 5754 5754 5754 5754 5754 5754 5753 5753
5669 5672 5675 5678 5680 5682 5685 5688 5691 5694 5697 5700 5702 5705 5707 5709 5712 5714 5716 5718 5720 5722 5724 5726 5727 5728 5730 5731 5732 5734 5735 5736 5737 5738 5739 5740 5741 5742 5743 5743 5744 5745 5745 5746 5747 5747 5747 5748 5748 5749 5749 5749 5750 5751 5751 5751 5752 5752 5752 5753 5753 5753 5753 5753 5752 5752 5752 5752 5752
5671 5674 5676 5678 5680 5683 5686 5689 5692 5695 5697 5700 5702 5705 5707 5710 5712 5714 5716 5718 5720 5722 5724 5725 5727 5728 5729 5731 5732 5733 5734 5735 5737 5737 5738 5739 5740 5741 5742 5742 5743 5743 5744 5745 5745 5746 5746 5747 5747 5747 5748 5748 5749 5749 5750 5750 5751 5751 5751 5751 5751 5751 5751 5751 5751 5751 5751 5750 5750
5672 5674 5676 5678 5680 5683 5686 5689 5692 5695 5698 5701 5703 5706 5708 5710 5712 5714 5717 5718 5720 5722 5723 5724 5726 5727 5728 5730 5731 5732 5733 5734 5736 5737 5737 5738 5739 5740 5740 5741 5742 5742 5743 5743 5744 5744 5745 5745 5746 5746 5747 5747 5747 5748 5748 5749 5749 5750 5750 5750 5750 5750 5750 5750 5749 5749 5749 5749 5748
5671 5673 5676 5678 5681 5683 5687 5690 5693 5696 5699 5701 5704 5706 5708 5710 5712 5714 5716 5718 5719 5721 5722 5723 5725 5726 5728 5729 5730 5731 5732 5733 5735 5735 5736 5737 5738 5738 5739 5740 5741 5741 5742 5742 5743 5743 5744 5744 5745 5745 5746 5746 5747 5747 5747 5748 5748 5748 5748 5748 5748 5748 5748 5748 5748 5747 5747 5747 5747
5672 5674 5677 5679 5682 5685 5688 5691 5694 5697 5699 5702 5704 5706 5708 5710 5712 5714 5715 5717 5718 5720 5721 5723 5724 5726 5727 5728 5729 5731 5732 5732 5733 5734 5735 5736 5737 5737 5738 5739 5739 5740 5741 5741 5742 5742 5742 5743 5743 5744 5745 5745 5746 5746 5746 5747 5747 5747 5747 5747 5747 5747 5747 5747 5746 5746 5746 5746 5745
5672 5675 5677 5680 5683 5687 5690 5692 5695 5697 5700 5702 5704 5706 5708 5710 5712 5713 5714 5716 5717 5719 5721 5722 5723 5725 5726 5727 5728 5729 5730 5731 5732 5733 5734 5735 5735 5736 5737 5737 5738 5739 5739 5740 5740 5741 5742 5742 5742 5743 5744 5744 5745 5745 5745 5745 5746 5746 5746 5746 5746 5745 5745 5745 5745 5745 5745 5744 5744
5673 5676 5679 5682 5685 5688 5691 5693 5696 5698 5700 5702 5704 5706 5708 5709 5711 5712 5713 5715 5717 5718 5720 5722 5723 5724 5725 5726 5727 5728 5729 5730 5731 5732 5732 5733 5734 5735 5736 5737 5737 5738 5738 5739 5739 5740 5741 5741 5742 5742 5743 5743 5743 5744 5744 5744 5744 5744 5744 5744 5744 5744 5744 5744 5744 5744 5743 5743 5743
5675 5677 5681 5684 5687 5689 5692 5694 5696 5698 5701 5702 5704 5706 5707 5708 5710 5712 5713 5715 5717 5718 5720 5721 5722 5723 5724 5725 5726 5727 5728 5729 5730 5731 5732 5732 5733 5734 5735 5735 5736 5737 5737 5738 5738 5739 5740 5740 5741 5741 5742 5742 5742 5742 5743 5743 5743 5743 5743 5743 5743 5743 5743 5743 5743 5742 5742 5742 5742
5676 5679 5682 5685 5687 5690 5692 5694 5697 5699 5701 5702 5704 5705 5707 5708 5710 5712 5713 5715 5716 5718 5719 5720 5721 5722 5723 5724 5725 5726 5727 5728 5729 5730 5731 5732 5732 5733 5734 5734 5735 5736 5736 5737 5737 5738 5739 5739 5740 5740 5741 5741 5741 5742 5742 5742 5742 5742 5742 5742 5742 5742 5742 5742 5742 5742 5742 5741 5741
5678 5681 5683 5686 5688 5691 5693 5695 5697 5699 5700 5702 5703 5705 5706 5708 5710 5712 5713 5714 5716 5717 5718 5719 5720 5721 5722 5723 5724 5725 5726 5727 5728 5729 5730 5731 5732 5732 5733 5733 5734 5735 5735 5736 5737 5737 5738 5738 5739 5739 5739 5740 5740 5740 5741 5741 5741 5741 5741 5741 5741 5741 5741 5741 5741 5741 5740 5740 5740
5680 5682 5685 5687 5689 5691 5693 5695 5697 5698 5700 5702 5703 5705 5706 5708 5710 5711 5712 5714 5715 5716 5717 5718 5719 5720 5721 5722 5722 5723 5725 5726 5727 5728 5729 5730 5730 5731 5732 5732 5733 5734 5734 5735 5736 5736 5737 5737 5738 5738 5738 5739 5739 5739 5740 5740 5740 5740 5740 5740 5740 5740 5740 5740 5740 5740 5739 5739 5738
5681 5683 5686 5688 5690 5692 5693 5695 5697 5698 5700 5701 5703 5704 5706 5708 5709 5711 5712 5713 5714 5715 5716 5717 5717 5718 5719 5720 5722 5722 5723 5725 5726 5727 5727 5728 5729 5730 5731 5732 5732 5733 5733 5734 5735 5735 5736 5736 5737 5737 5737 5737 5738 5738 5738 5739 5739 5739 5739 5739 5739 5739 5739 5739 5739 5738 5738 5738 5737
5682 5684 5686 5688 5690 5691 5693 5695 5696 5698 5699 5701 5702 5704 5706 5707 5708 5710 5711 5712 5713 5714 5715 5716 5716 5717 5718 5719 5721 5722 5722 5723 5724 5725 5726 5727 5728 5729 5730 5730 5731 5732 5732 5733 5734 5734 5735 5735 5736 5736 5736 5737 5737 5737 5737 5737 5738 5738 5738 5738 5738 5738 5738 5738 5738 5737 5737 5737 5737
5682 5684 5686 5687 5689 5691 5692 5694 5696 5697 5699 5701 5702 5704 5705 5707 5708 5709 5710 5711 5712 5712 5713 5714 5715 5716 5717 5718 5720 5721 5722 5722 5723 5724 5725 5726 5727 5728 5728 5729 5730 5731 5731 5732 5732 5733 5734 5734 5734 5735 5735 5736 5736 5736 5736 5737 5737 5737 5737 5737 5737 5737 5737 5737 5737 5737 5736 5736 5736
5682 5684 5686 5687 5689 5691 5692 5694 5696 5697 5699 5700 5702 5703 5705 5706 5707 5708 5709 5710 5711 5712 5712 5713 5715 5716 5717 5718 5719 5720 5721 5722 5722 5723 5724 5725 5726 5727 5728 5728 5729 5730 5730 5731 5732 5732 5733 5733 5733 5734 5734 5735 5735 5735 5735 5735 5736 5736 5736 5736 5736 5736 5736 5736 5736 5736 5735 5735 5735
5682 5684 5686 5687 5689 5691 5692 5694 5696 5697 5699 5700 5702 5703 5704 5705 5706 5707 5708 5709 5710 5711 5712 5713 5714 5715 5716 5717 5718 5719 5720 5721 5722 5722 5723 5724 5725 5726 5727 5727 5728 5729 5729 5730 5731 5731 5732 5732 5732 5733 5733 5734 5734 5734 5734 5734 5734 5735 5735 5735 5735 5735 5735 5735 5735 5735 5734 5734 5733
5682 5684 5686 5687 5689 5691 5692 5694 5696 5697 5698 5700 5701 5702 5703 5704 5706 5707 5707 5708 5709 5710 5712 5712 5713 5714 5715 5716 5717 5718 5719 5720 5721 5722 5723 5723 5724 5725 5726 5727 5727 5728 5729 5729 5730 5730 5731 5731 5732 5732 5732 5733 5733 5733 5733 5733 5733 5734 5734 5734 5734 5734 5734 5734 5734 5733 5733 5733 5732
5683 5684 5686 5687 5689 5691 5692 5694 5696 5697 5698 5700 5701 5702 5703 5704 5705 5706 5707 5708 5709 5710 5711 5712 5713 5714 5715 5716 5717 5717 5718 5719 5720 5721 5722 5723 5724 5725 5725 5726 5727 5727 5728 5728 5729 5730 5730 5731 5731 5731 5732 5732 5732 5732 5732 5732 5733 5733 5733 5733 5733 5733 5733 5733 5733 5732 5732 5731 5731
5683 5684 5686 5688 5689 5691 5692 5694 5696 5697 5698 5699 5701 5702 5703 5704 5705 5706 5707 5708 5709 5710 5711 5712 5712 5713 5714 5715 5716 5717 5718 5719 5720 5721 5722 5722 5723 5724 5725 5725 5726 5727 5727 5728 5728 5729 5729 5730 5730 5730 5731 5731 5731 5731 5732 5732 5732 5732 5732 5732 5732 5732 5732 5732 5732 5731 5731 5730 5729
5683 5685 5686 5688 5689 5691 5692 5694 5695 5697 5698 5699 5700 5702 5702 5704 5705 5706 5707 5707 5708 5709 5710 5711 5712 5713 5714 5715 5716 5717 5718 5719 5719 5720 5721 5722 5723 5723 5724 5725 5725 5726 5726 5727 5727 5728 5728 5729 5729 5730 5730 5730 5730 5731 5731 5731 5731 5731 5732 5731 5731 5731 5731 5731 5730 5730 5729 5729 5728
5683 5685 5687 5688 5690 5691 5692 5694 5695 5697 5698 5699 5700 5701 5702 5703 5704 5705 5706 5707 5708 5709 5710 5711 5712 5712 5713 5714 5715 5716 5717 5718 5719 5720 5721 5721 5722 5723 5723 5724 5724 5725 5726 5726 5727 5727 5727 5728 5728 5729 5729 5729 5730 5730 5730 5730 5730 5731 5731 5731 5731 5730 5730 5730 5729 5729 5728 5728 5727
5684 5685 5687 5688 5690 5691 5692 5694 5695 5697 5698 5699 5700 5701 5702 5703 5704 5705 5705 5706 5707 5708 5709 5710 5711 5712 5713 5714 5715 5716 5717 5717 5718 5719 5720 5720 5721 5722 5722 5723 5724 5724 5725 5725 5726 5726 5727 5727 5727 5728 5728 5728 5729 5729 5729 5729 5730 5730 5730 5730 5730 5730 5729 5729 5728 5728 5727 5727 5726
5684 5685 5687 5688 5689 5691 5692 5694 5695 5696 5697 5698 5699 5700 5701 5702 5703 5704 5705 5706 5707 5708 5709 5710 5711 5712 5712 5713 5714 5715 5716 5717 5717 5718 5719 5719 5720 5721 5722 5722 5723 5723 5724 5724 5725 5725 5726 5726 5727 5727 5727 5728 5728 5728 5728 5729 5729 5729 5729 5729 5729 5728 5728 5727 5727 5727 5726 5725 5725
5684 5685 5687 5688 5689 5691 5692 5693 5695 5696 5697 5698 5699 5700 5701 5702 5702 5703 5704 5705 5707 5707 5708 5709 5710 5711 5712 5713 5713 5714 5715 5716 5716 5717 5717 5718 5719 5720 5721 5721 5722 5722 5723 5723 5724 5725 5725 5726 5726 5726 5727 5727 5727 5727 5727 5728 5728 5728 5728 5728 5728 5727 5727 5726 5726 5725 5725 5724 5724
5684 5686 5687 5688 5689 5691 5692 5693 5694 5696 5697 5697 5699 5700 5700 5701 5702 5703 5704 5705 5706 5707 5708 5709 5710 5711 5711 5712 5713 5713 5714 5715 5715 5716 5717 5717 5718 5719 5720 5720 5721 5722 5722 5722 5723 5724 5724 5725 5725 5725 5726 5726 5726 5727 5727 5727 5727 5727 5727 5727 5727 5726 5726 5725 5725 5724 5724 5723 5722